[Iaude] MPEC B62: 2024 BN1 [a=1.78,e=0.41,i=9.9,H=26.0]

mpec at marsden.cfa.harvard.edu mpec at marsden.cfa.harvard.edu
Sat Jan 20 06:38:21 EST 2024


M.P.E.C. 2024-B62                              Issued 2024 January 20, 11:36 UT

     The Minor Planet Electronic Circulars contain information on unusual
         minor planets, routine data on comets and natural satellites,
         and occasional editorial announcements.  They are published
    on behalf of Division F of the International Astronomical Union by the
          Minor Planet Center, Smithsonian Astrophysical Observatory,
                          Cambridge, MA 02138, U.S.A.
			  
             Prepared using the Tamkin Foundation Computer Network

                              MPC at CFA.HARVARD.EDU
            URL https://www.minorplanetcenter.net/    ISSN 1523-6714

                                    2024 BN1                                    


Observations:
     K24B01N*1C2024 01 19.23259808 11 28.360+33 38 43.94         21.38GVEB062G96
     K24B01N 1C2024 01 19.23778808 11 30.404+33 39 20.74         21.46GVEB062G96
     K24B01N 1C2024 01 19.24298708 11 32.557+33 39 59.11         20.88GVEB062G96
     K24B01N 1C2024 01 19.24817908 11 34.642+33 40 36.01         21.41GVEB062G96
     K24B01N KC2024 01 19.36116308 12 20.322+33 53 55.50         21.19GVEB062I52
     K24B01N KC2024 01 19.36313308 12 21.121+33 54 09.58         21.60GVEB062I52
     K24B01N KC2024 01 19.36511808 12 21.899+33 54 23.22         21.58GVEB062I52
     K24B01N KC2024 01 19.36710208 12 22.741+33 54 36.90         21.23GVEB062I52
     K24B01N KC2024 01 20.44854908 20 39.772+36 01 45.91         21.43GVEB062I52
     K24B01N KC2024 01 20.45319808 20 41.885+36 02 17.12         22.42GVEB062I52
     K24B01N KC2024 01 20.45783808 20 43.984+36 02 49.27         21.51GVEB062I52
     K24B01N KC2024 01 20.46247008 20 46.072+36 03 22.54         21.72GVEB062I52

Observer details:
G96 Mt. Lemmon Survey.  Observer A. R. Gibbs.  Measurers T. Beuden, V. F.
    Carvajal, D. Fay, J. B. Fazekas, D. C. Fuls, A. R. Gibbs, A. D. Grauer, H.
    Groeller, J. K. Hogan, R. A. Kowalski, S. M. Larson, G. J. Leonard, D.
    Rankin, R. L. Seaman, F. C. Shelly, K. W. Wierzchos.  1.5-m reflector +
    10K CCD.
I52 Steward Observatory, Mt. Lemmon Station.  Observer R. A. Kowalski.
    Measurers E. C. Beshore, D. Fay, J. B. Fazekas, D. C. Fuls, A. R. Gibbs,
    A. D. Grauer, H. Groeller, J. K. Hogan, R. A. Kowalski, S. M. Larson, G.
    J. Leonard, D. Rankin, R. L. Seaman, F. C. Shelly, K. W. Wierzchos.  1.0-m
    prime focus + CCD.

Orbital elements:
2024 BN1                                                 Earth MOID = 0.0892 AU
Epoch 2023 Sept. 13.0 TT = JDT 2460200.5                MPC                     
M 299.46288              (2000.0)            P               Q                  
n   0.41353900     Peri.   25.97638     -0.73278513     -0.66142206             
a   1.7842611      Node   111.65716     +0.59051072     -0.73484296             
e   0.4071090      Incl.    9.90259     +0.33811691     -0.15008891             
P   2.38           H   26.00          G   0.15           U   8                  
Residuals in seconds of arc
240119 G96  0.4+  0.1-    240119 I52  0.1+  0.1-    240120 I52  0.2-  0.3+
240119 G96  0.4-  0.6-    240119 I52  0.1+  0.2+    240120 I52  0.1+  0.3-
240119 G96  0.1+  0.4+    240119 I52  0.3-  0.0     240120 I52  0.1+  0.0
240119 G96  0.2-  0.1+    240119 I52  0.2+  0.2-    240120 I52 (0.0   1.6+)

Ephemeris:
2024 BN1                 a,e,i = 1.78, 0.41, 10                  q = 1.0579
Date    TT    R. A. (2000) Decl.     Delta      r    Elong.  Phase     V
2023 12 21    06 37 49.2 +01 19 43   0.1991  1.1678   155.4    20.5    23.8
...
2024 01 05    07 05 45.2 +11 16 36   0.1308  1.1118   168.5    10.2    22.5
...
2024 01 13    07 34 32.6 +22 11 40   0.1055  1.0890   179.5     0.5    21.4
...
2024 01 19    08 09 42.9 +33 11 26   0.09405 1.0758   167.2    11.7    21.7
2024 01 20    08 17 12.1 +35 08 58   0.09288 1.0739   164.9    13.8    21.8
2024 01 21    08 25 13.8 +37 06 38   0.09194 1.0721   162.7    15.9    21.8
...
2024 01 27    09 25 44.1 +47 59 18   0.09105 1.0636   148.9    28.5    22.2
...
2024 02 04    11 10 49.6 +56 20 43   0.1009  1.0581   133.8    42.2    22.8
...
2024 02 19    13 31 42.0 +55 15 06   0.1384  1.0662   121.0    52.6    23.8

A. U. Tomatic                (C) Copyright 2024 MPC           M.P.E.C. 2024-B62





More information about the Iaude mailing list